sat.trackr.live / text

‹ back to catalog

YAOGAN-9 01B

NORAD 36414 · 2010-009B

PAYLOAD ACTIVE UNKNOWN

§ Identity

Operator
Country
PRC
Launch date
2010-03-05
Launch site
JSC
Launch vehicle
Mass (kg)
RCS (m²)
2.91

External: N2YO · Heavens-Above · Gunter

§ Orbital elements

Epoch: 2026-09-20T03:32:20.249376Z

Period
107.01 min
Inclination
63.3628°
Eccentricity
0.0546436
Mean motion
13.45725525 rev/d
Perigee alt
680.0 km
Apogee alt
1,496.0 km
Semi-major
7,466.2 km
B*
5.2439e-5
RAAN
112.0920°
Arg perigee
21.6659°
Mean anomaly
340.6549°
Rev number
81,252

§ Raw data

YAOGAN-9 01B1 36414U 10009B   26263.14745659 -.00000016  00000+0  52439-4 0  99922 36414  63.3628 112.0920 0546436  21.6659 340.6549 13.45725525812528

JSON: /api/v1/satellites/36414 · /tle

For live sub-satellite position, see the globe view (requires WebGL).

§ Visibility from observer

Set your observer location to see the next 7 days of passes ≥ 10°. The values pass through the URL so the page stays shareable.

No JS? Fill the form by hand. The geolocation button needs JavaScript.